Find Starlink 35447

NORAD ID: 66589 Int'l Des: 2025-270 Owner: SPXS Country: US Constellation: starlink operational
LEOCIRCULAR

現在のビュー

3D地球を読み込み中...

Starlink 35447について

説明を読み込み中...

次回通過

Passes for default location (London). Set your location on the main map for personalized predictions.

高度履歴

Loading altitude history...

軌道要素

1 66589U 25270B 26149.81895793 .00023101 00000-0 84579-3 0 9995
2 66589 43.0012 318.0030 0001731 255.0365 105.0296 15.27602502 30229
Epoch: May 29, 2026 • Age: 19 hours

現在のステータス

高度 484.4 km
速度 7.63 km/s
衛星直下点 30.00°N, 116.95°W
打ち上げ日 Nov 22, 2025
運用期間 0.5 years
タイプ internet

技術仕様

分類 Payload
質量 575.00 kg
乾燥質量 530.00 kg
総質量 575.00 kg
長さ 0.30 m
直径 4.10 m
スパン 29.00 m
形状 Box + pan
製造者 SPXS
バスタイプ Starlink V2MO
フェーズステータス In Orbit
所有者/国 SPXS/US

Most Searched